TimeCDT,TemperatureF,Dew PointF,Humidity,Sea Level PressureIn,VisibilityMPH,Wind Direction,Wind SpeedMPH,Gust SpeedMPH,PrecipitationIn,Events,Conditions,WindDirDegrees,DateUTC
12:53 AM,55.0,43.0,64,29.93,10.0,Calm,Calm,-,N/A,,Clear,0,2012-10-20 05:53:00
1:53 AM,57.0,41.0,55,29.91,10.0,Calm,Calm,-,N/A,,Clear,0,2012-10-20 06:53:00
2:53 AM,55.9,41.0,57,29.91,10.0,Calm,Calm,-,N/A,,Clear,0,2012-10-20 07:53:00
3:53 AM,55.0,41.0,59,29.89,10.0,Calm,Calm,-,N/A,,Clear,0,2012-10-20 08:53:00
4:53 AM,57.9,43.0,58,29.88,10.0,South,3.5,-,N/A,,Clear,180,2012-10-20 09:53:00
5:53 AM,59.0,46.0,62,29.88,10.0,South,5.8,-,N/A,,Clear,190,2012-10-20 10:53:00
6:53 AM,60.1,50.0,69,29.89,10.0,South,5.8,-,N/A,,Clear,180,2012-10-20 11:53:00
7:19 AM,60.1,51.1,72,29.93,10.0,South,5.8,-,N/A,,Mostly Cloudy,180,2012-10-20 12:19:00
7:53 AM,62.1,53.1,72,29.90,10.0,South,6.9,-,N/A,,Overcast,190,2012-10-20 12:53:00
8:53 AM,64.0,55.9,75,29.91,10.0,South,5.8,-,N/A,,Overcast,190,2012-10-20 13:53:00
9:33 AM,66.9,57.9,73,29.95,10.0,South,10.4,17.3,N/A,,Mostly Cloudy,180,2012-10-20 14:33:00
9:53 AM,69.1,60.1,73,29.92,10.0,South,11.5,-,N/A,,Overcast,180,2012-10-20 14:53:00
10:14 AM,70.0,61.0,73,29.95,10.0,South,11.5,-,N/A,,Scattered Clouds,170,2012-10-20 15:14:00
10:38 AM,72.0,63.0,73,29.94,10.0,South,12.7,20.7,N/A,,Mostly Cloudy,190,2012-10-20 15:38:00
10:53 AM,73.0,63.0,71,29.91,10.0,South,11.5,-,N/A,,Overcast,190,2012-10-20 15:53:00
11:53 AM,77.0,66.0,69,29.89,9.0,SSW,15.0,-,N/A,,Mostly Cloudy,200,2012-10-20 16:53:00
12:09 PM,79.0,66.0,64,29.92,10.0,SSW,16.1,27.6,N/A,,Partly Cloudy,200,2012-10-20 17:09:00
12:36 PM,81.0,66.0,60,29.91,10.0,South,16.1,25.3,N/A,,Mostly Cloudy,190,2012-10-20 17:36:00
1:09 PM,81.0,66.0,60,29.90,10.0,SSW,18.4,25.3,N/A,,Scattered Clouds,200,2012-10-20 18:09:00
1:53 PM,82.0,66.0,58,29.83,10.0,SSW,13.8,23.0,N/A,,Scattered Clouds,200,2012-10-20 18:53:00
2:53 PM,82.9,66.0,56,29.81,10.0,South,16.1,21.9,N/A,,Partly Cloudy,190,2012-10-20 19:53:00
3:53 PM,82.9,66.0,56,29.79,10.0,SSW,13.8,23.0,N/A,,Scattered Clouds,200,2012-10-20 20:53:00
4:53 PM,82.9,66.0,56,29.78,10.0,South,12.7,20.7,N/A,,Partly Cloudy,190,2012-10-20 21:53:00
5:53 PM,82.9,66.0,56,29.78,10.0,South,13.8,19.6,N/A,,Clear,190,2012-10-20 22:53:00
6:53 PM,80.1,66.0,62,29.79,10.0,South,8.1,-,N/A,,Clear,180,2012-10-20 23:53:00
7:53 PM,78.1,66.0,66,29.81,10.0,South,8.1,-,N/A,,Clear,180,2012-10-21 00:53:00
8:53 PM,77.0,66.0,69,29.81,10.0,South,6.9,-,N/A,,Clear,170,2012-10-21 01:53:00
9:53 PM,75.9,66.0,71,29.81,10.0,South,6.9,-,N/A,,Clear,170,2012-10-21 02:53:00
10:53 PM,75.9,68.0,76,29.83,9.0,South,10.4,18.4,N/A,,Clear,170,2012-10-21 03:53:00
11:53 PM,75.0,69.1,82,29.81,8.0,South,13.8,20.7,N/A,,Partly Cloudy,170,2012-10-21 04:53:00